Tracking 28790 objects as of 19-Apr-2024
HD Live streaming from Space Station
objects crossing your sky now

ZY-1 02E

Track ZY-1 02E now!
10-day predictions


NORAD ID: 50465
Int'l Code: 2021-131A
Perigee: 780.3 km
Apogee: 781.7 km
Inclination: 98.5 °
Period: 100.3 minutes
Semi major axis: 7151 km
RCS: Unknown
Launch date: December 26, 2021
Source: People's Republic of China (PRC)
Launch site: Taiyaun Space Center, China (TSC)
Your satellite tracking list
Your tracking list is empty




NASA's NSSDC Master Catalog

Two Line Element Set (TLE):
1 50465U 21131A   24109.84516565  .00000500  00000-0  18965-3 0  9991
2 50465  98.5093 189.5256 0000975 100.7395 259.3900 14.35362220121187
Source of the keplerian elements: AFSPC